Vertical_Velocity
-4 -2 -1 1 6 2 -1 -2 -0 -0 1 -1 -1 -1 -2 -3 0 -2 1 -1 -2 -1 -4 0 -3 -2 -0 -1 -3 -2 -0 -1 -2 -4 -2 -3 -1 -2 -0 -3 2 -1 -1 2 0 2 -3
-2 -1 1 0 5 4 2 -2 -1 1 -3 2 1 0 1 -3 -4 -1 1 -1 -2 -4 -1 -4 -0 -2 -3 -1 -2 -1 -3 -4 -1 -3 -5 -3 -1 -1 -0 -0 -2 0 0 6 -3 -7 -4
3 1 -0 1 1 -0 3 -2 1 -2 -3 1 -2 2 1 -1 -1 -1 -2 -0 -3 -1 -3 -2 -2 -3 -5 3 -1 -1 1 -2 -1 -4 -2 -5 -0 -1 -1 3 -1 -1 0 5 2 -3 5
-1 1 -7 3 -2 5 -3 -1 2 0 -1 -0 2 -3 1 -0 -1 -0 -1 -1 -2 -3 -5 -1 -5 -2 -8 -6 1 -1 -1 -2 -2 0 -2 1 -5 2 -2 -3 0 -2 0 3 0 3 1
-1 -2 -1 1 -0 -6 1 7 3 4 -2 1 -3 -0 -2 -1 0 0 -1 1 -5 -3 -4 -2 -4 -5 -0 -8 -2 2 -2 -1 -1 2 3 -0 -2 -0 -0 -3 -0 -0 -1 -1 -1 -0 5
18 0 -0 -1 1 -6 6 7 -2 3 6 -5 2 -7 -2 0 -1 -2 -3 -0 -5 -2 0 -1 -2 -5 -3 -4 -0 3 -2 1 -3 2 1 -5 4 -3 -1 -2 -3 -2 -1 1 0 -5 -4
-3 -2 -7 0 0 0 -2 5 -1 1 4 -2 1 -4 2 1 -6 -4 -1 -4 -1 -1 -2 1 -3 -3 -1 2 -2 -3 2 1 -2 -3 3 -2 1 2 -0 -1 -0 -1 -1 -0 -0 -1 -5
2 -3 2 1 3 7 2 -2 6 -6 4 6 -2 -1 0 -1 -3 -2 -0 3 1 -5 -12 -5 4 -16 4 4 -9 0 1 -4 4 -2 1 -1 -0 3 -3 2 0 -1 -2 0 3 3 -4
-1 -1 -2 9 3 -1 3 2 0 -2 -7 6 4 1 4 0 -3 -0 -3 0 -2 -4 -9 6 -5 -3 7 2 -10 11 -2 1 4 -2 2 -2 2 3 0 2 -2 -2 -2 1 3 0 1
1 -3 -3 19 8 6 1 4 4 6 2 -4 -2 -2 1 -6 5 -0 3 -0 -3 -4 -1 -2 -2 -4 6 -1 -6 7 6 2 -4 1 2 -3 -1 1 1 -1 -2 -3 -2 0 1 2 2
-2 0 -0 14 2 9 4 5 9 -2 -3 -8 1 -10 -6 7 -2 4 -5 -0 -2 -4 -2 4 6 2 -1 3 -1 1 6 0 -5 6 -2 -1 3 -0 -1 3 2 -0 2 0 1 1 4
-3 2 -4 9 -0 17 1 -7 9 1 1 8 -2 -3 -3 1 -2 1 2 4 -0 1 -10 -2 2 -1 -2 5 4 1 1 3 9 7 -1 -4 3 -1 -1 4 4 2 1 0 0 2 1
0 1 2 7 -1 13 -0 2 3 -15 -0 -1 -4 6 3 5 4 5 10 9 2 0 1 0 1 2 0 -0 2 2 2 -3 -2 -2 -3 1 -1 0 1 2 3 -0 1 -4 -3 -2 -5
-1 2 -0 -1 -2 17 -2 0 1 2 2 0 3 -3 6 5 4 -4 9 7 2 3 0 1 2 -0 1 1 1 -0 -1 1 3 -1 2 2 1 0 2 2 -4 -0 1 -4 -2 -2 -2
0 1 -1 -5 -7 10 3 2 0 -1 5 1 0 -7 9 7 -2 -3 4 7 1 -3 -0 3 1 -0 1 2 2 2 4 5 1 -0 1 0 0 1 1 2 1 -3 -1 1 0 1 -2
16 -3 3 3 5 2 5 -1 5 2 -0 1 15 -4 1 2 2 -2 4 -5 -1 2 -1 1 2 1 3 1 -0 2 3 1 1 1 -1 -1 -1 1 0 2 2 3 3 -2 -1 -2 -1
-1 -3 3 -2 2 -1 11 8 -4 3 -6 10 15 20 -2 -1 6 -2 2 -7 -1 -0 -2 -3 0 0 -0 2 0 -1 -0 -0 1 -2 3 1 1 1 2 -2 0 2 -2 -2 1 1 -4
18 4 1 2 -2 5 3 3 -8 5 1 14 11 12 -8 -2 6 1 -3 -9 2 -2 -2 -4 -4 0 -0 2 1 0 -2 1 -2 -1 -2 -2 2 0 -1 -2 -2 -0 -3 1 1 -4 1
8 65 -1 2 -4 5 5 0 -8 -2 8 -4 0 6 -1 -4 -6 -1 -2 -5 -2 -6 -3 -4 2 0 2 -1 -1 -1 -0 1 1 -2 2 -2 -2 -0 -1 1 3 0 1 -1 -0 1 -4
22 -5 2 2 1 -3 4 -3 -3 7 4 1 37 14 34 -0 4 -2 -6 -6 1 -3 -6 -5 -1 -1 -1 3 1 -2 1 -1 -1 -0 2 3 -2 -3 -7 2 -1 0 1 -1 -0 2 -1
-15 16 -1 -16 17 -4 4 1 -2 -5 8 9 10 -15 -3 -11 10 8 -3 0 1 3 -7 3 -2 -3 -0 5 3 -4 0 -3 3 -0 -0 8 2 0 -3 0 -4 -4 3 4 -4 -1 -1
4 5 30 -1 7 3 -2 -10 0 7 28 22 9 -7 -6 5 7 -0 -1 -11 -6 1 -6 -5 -4 3 2 -3 -2 -1 -5 3 0 1 -1 -0 -0 2 1 -1 1 -7 6 2 -0 -0 -2
-0 4 19 28 -0 3 -7 35 2 9 5 -13 4 8 8 -0 -2 5 -6 -10 -7 6 1 -2 1 1 -4 3 9 2 -1 -0 -2 0 2 7 2 -1 -3 2 -0 -7 -8 -1 -2 1 8
7 10 21 -11 12 -3 -0 1 6 -6 12 21 -7 11 2 -12 -7 -4 -5 2 -5 5 5 -2 5 1 -4 6 2 -2 -3 3 1 -7 -5 0 -0 3 -1 1 -2 -4 -2 2 -2 -2 6
-2 -19 14 9 12 -7 1 1 -2 20 7 3 3 -3 -0 -6 -3 4 6 3 -1 1 -2 2 2 0 3 7 1 -4 -5 4 -1 -2 -1 -3 2 3 -1 1 -7 -8 -2 4 0 -23 6
-10 -11 35 15 20 -5 1 5 -1 -2 3 5 -3 9 -2 -0 -12 6 -4 -1 -5 -1 2 -1 5 4 -2 1 10 -2 -6 -2 -1 3 4 1 -0 6 0 -1 -2 -0 -1 -3 -2 -28 -1
-5 3 -7 10 56 7 3 15 -3 3 -1 -4 -7 -10 -0 7 2 -0 -9 -2 4 -5 1 1 -4 -1 3 -2 5 -1 -4 -2 -2 -4 -5 -4 -1 -1 0 -2 -7 -7 -5 1 6 -12 -1
-5 -7 -8 -16 6 17 16 -1 -0 -0 -5 -2 1 5 2 -1 -2 -6 5 3 -4 -5 -4 -4 4 -5 12 3 -2 -0 -3 -3 -1 -5 -2 -8 0 -6 7 6 -11 -13 1 -1 1 1 -3
-4 3 4 -0 12 9 17 8 -1 -1 -2 5 3 -4 2 11 4 3 -3 -1 -6 -2 2 -0 -7 -0 13 -4 0 4 -2 -3 -1 -9 -0 -2 -20 -8 -4 -9 -1 4 1 -1 -4 2 -6
Height
3119 3121 3127 3130 3135 3141 3145 3148 3151 3153 3156 3159 3162 3164 3165 3166 3168 3170 3172 3173 3174 3176 3177 3179 3180 3180 3181 3182 3183 3182 3183 3182 3182 3181 3181 3180 3180 3179 3177 3178 3178 3178 3179 3180 3179 3177 3176
3112 3115 3119 3124 3127 3132 3139 3143 3146 3149 3152 3155 3156 3159 3161 3163 3164 3166 3168 3169 3170 3172 3173 3174 3176 3177 3178 3180 3180 3180 3180 3179 3179 3178 3177 3177 3176 3176 3174 3174 3175 3175 3176 3178 3176 3173 3173
3104 3109 3112 3115 3122 3125 3131 3138 3141 3144 3148 3151 3153 3154 3157 3158 3160 3162 3164 3165 3166 3168 3169 3170 3171 3173 3174 3177 3176 3177 3176 3176 3175 3174 3174 3174 3173 3172 3171 3172 3171 3172 3173 3175 3174 3171 3171
3096 3102 3106 3108 3114 3119 3125 3132 3135 3139 3143 3146 3149 3151 3153 3155 3156 3158 3159 3161 3161 3163 3165 3165 3167 3168 3169 3171 3173 3172 3172 3172 3172 3170 3170 3169 3169 3168 3168 3170 3170 3170 3171 3173 3173 3171 3170
3089 3094 3098 3102 3107 3114 3118 3122 3129 3134 3137 3140 3143 3147 3149 3150 3152 3154 3155 3156 3157 3159 3160 3161 3163 3163 3165 3166 3168 3168 3168 3168 3168 3168 3166 3167 3166 3166 3167 3168 3170 3170 3170 3171 3172 3170 3170
3079 3086 3091 3096 3100 3105 3112 3117 3120 3128 3132 3135 3138 3142 3145 3147 3148 3149 3150 3152 3151 3154 3155 3156 3158 3162 3162 3161 3162 3163 3164 3164 3165 3165 3165 3165 3165 3165 3166 3167 3169 3169 3170 3170 3170 3170 3168
3069 3076 3083 3089 3093 3098 3104 3109 3114 3119 3126 3131 3134 3138 3141 3142 3142 3144 3148 3149 3151 3151 3151 3152 3154 3155 3156 3157 3159 3160 3160 3162 3161 3162 3163 3163 3164 3164 3165 3166 3167 3168 3169 3169 3169 3169 3167
3059 3067 3074 3079 3085 3091 3095 3102 3109 3113 3118 3123 3130 3133 3136 3138 3138 3142 3144 3145 3145 3146 3146 3146 3147 3149 3152 3151 3154 3156 3158 3160 3159 3159 3160 3162 3162 3162 3164 3165 3166 3166 3167 3168 3169 3169 3167
3046 3056 3064 3070 3077 3083 3089 3093 3100 3104 3108 3112 3121 3128 3131 3131 3134 3138 3140 3141 3141 3141 3142 3142 3139 3140 3145 3147 3149 3153 3154 3155 3155 3157 3158 3159 3162 3161 3162 3163 3165 3165 3165 3166 3168 3168 3165
3036 3046 3054 3060 3068 3074 3082 3087 3093 3097 3102 3108 3116 3121 3124 3126 3132 3134 3136 3138 3139 3140 3139 3139 3135 3136 3138 3138 3142 3146 3148 3152 3152 3154 3156 3157 3158 3159 3160 3162 3163 3164 3164 3164 3164 3165 3166
3024 3035 3044 3050 3060 3065 3074 3080 3084 3090 3097 3101 3109 3114 3117 3122 3125 3130 3133 3134 3138 3139 3139 3137 3133 3134 3134 3136 3138 3139 3142 3146 3148 3151 3155 3157 3156 3156 3158 3160 3160 3162 3161 3163 3162 3162 3163
3013 3023 3032 3042 3052 3056 3066 3074 3078 3085 3091 3097 3102 3106 3111 3117 3121 3123 3127 3131 3136 3139 3133 3132 3131 3132 3134 3135 3136 3137 3139 3142 3146 3148 3150 3152 3153 3153 3155 3158 3159 3159 3159 3160 3159 3159 3160
3003 3012 3021 3032 3043 3050 3059 3065 3072 3079 3087 3093 3098 3103 3109 3112 3117 3119 3122 3128 3135 3132 3129 3131 3131 3131 3132 3134 3135 3136 3138 3141 3144 3146 3147 3148 3149 3150 3150 3153 3156 3157 3157 3158 3159 3159 3159
2992 3002 3011 3023 3033 3042 3051 3058 3066 3074 3082 3089 3095 3101 3104 3109 3113 3117 3121 3127 3127 3123 3124 3126 3128 3129 3132 3133 3134 3136 3138 3141 3142 3144 3145 3146 3148 3148 3148 3148 3152 3155 3156 3157 3158 3160 3157
2983 2993 3002 3011 3018 3033 3042 3051 3061 3069 3077 3084 3091 3096 3100 3105 3109 3115 3118 3120 3117 3120 3123 3124 3126 3129 3131 3132 3133 3135 3138 3139 3140 3143 3146 3145 3146 3146 3147 3147 3151 3153 3154 3156 3155 3156 3156
2972 2984 2993 3001 3011 3022 3033 3044 3055 3063 3072 3077 3085 3091 3097 3100 3105 3110 3114 3112 3114 3118 3120 3123 3124 3128 3128 3129 3132 3133 3136 3138 3139 3141 3143 3145 3146 3147 3147 3148 3150 3152 3153 3154 3154 3156 3157
2963 2974 2984 2993 3003 3013 3025 3036 3047 3057 3066 3071 3078 3085 3090 3095 3099 3104 3105 3107 3112 3115 3119 3122 3122 3125 3127 3128 3130 3132 3134 3137 3138 3140 3143 3144 3146 3147 3147 3147 3149 3150 3150 3152 3153 3153 3153
2953 2964 2976 2985 2994 3005 3016 3028 3040 3050 3060 3066 3071 3074 3082 3088 3093 3094 3098 3102 3108 3111 3116 3120 3120 3122 3126 3127 3128 3131 3133 3135 3137 3140 3142 3143 3143 3143 3144 3144 3146 3147 3147 3149 3150 3152 3150
2942 2953 2967 2976 2987 2997 3007 3019 3029 3042 3050 3055 3061 3069 3076 3082 3083 3085 3092 3099 3105 3107 3112 3116 3116 3119 3123 3126 3129 3129 3131 3134 3135 3139 3140 3141 3141 3142 3142 3144 3142 3142 3143 3144 3145 3147 3147
2934 2946 2957 2968 2979 2989 2999 3010 3023 3033 3042 3053 3056 3063 3065 3071 3074 3078 3085 3094 3100 3102 3106 3111 3112 3115 3118 3121 3124 3127 3128 3131 3133 3135 3137 3139 3139 3141 3141 3142 3141 3140 3139 3140 3142 3143 3141
2926 2937 2946 2959 2970 2981 2990 3002 3013 3024 3033 3042 3046 3051 3049 3058 3063 3070 3079 3088 3094 3096 3101 3106 3107 3110 3114 3116 3119 3123 3125 3128 3130 3132 3134 3136 3136 3137 3137 3137 3137 3136 3136 3136 3136 3138 3138
2917 2928 2935 2950 2962 2973 2983 2994 3004 3013 3021 3028 3025 3040 3047 3052 3058 3067 3073 3079 3087 3092 3097 3100 3103 3108 3111 3113 3116 3120 3122 3124 3126 3129 3131 3133 3133 3133 3134 3134 3134 3133 3131 3130 3131 3131 3129
2907 2916 2926 2941 2953 2965 2975 2987 2997 3004 3011 3016 3023 3030 3039 3046 3055 3061 3065 3074 3082 3088 3089 3095 3100 3103 3108 3112 3114 3116 3121 3121 3122 3124 3127 3130 3130 3132 3129 3130 3129 3127 3125 3125 3125 3125 3123
2900 2908 2916 2929 2944 2957 2969 2980 2989 2998 3006 3010 3018 3029 3033 3041 3049 3054 3063 3071 3077 3080 3085 3089 3095 3098 3108 3108 3110 3112 3117 3118 3118 3121 3124 3125 3127 3129 3127 3127 3125 3120 3119 3119 3118 3118 3118
2894 2903 2912 2923 2936 2949 2961 2972 2981 2990 2999 3005 3013 3022 3027 3036 3046 3052 3054 3061 3070 3075 3078 3084 3089 3096 3102 3104 3106 3110 3113 3115 3115 3117 3120 3123 3125 3125 3125 3123 3116 3116 3118 3117 3114 3112 3114
2887 2896 2901 2913 2929 2942 2954 2965 2975 2984 2991 2999 3008 3018 3024 3034 3038 3045 3049 3056 3061 3067 3074 3078 3085 3090 3097 3100 3102 3103 3107 3108 3112 3111 3113 3118 3120 3123 3121 3121 3117 3113 3113 3115 3112 3109 3109
2882 2888 2896 2904 2916 2934 2947 2959 2969 2980 2987 2996 3004 3014 3023 3029 3032 3037 3043 3049 3055 3061 3068 3074 3079 3086 3090 3093 3095 3096 3099 3103 3104 3105 3111 3113 3115 3114 3117 3115 3110 3110 3112 3111 3112 3110 3106
2876 2883 2890 2900 2910 2926 2938 2953 2963 2973 2982 2992 3000 3008 3017 3021 3025 3033 3039 3043 3048 3055 3061 3068 3079 3077 3083 3086 3090 3089 3091 3095 3096 3101 3105 3108 3111 3111 3114 3112 3107 3104 3107 3107 3106 3104 3104
2868 2877 2885 2894 2904 2916 2933 2945 2956 2968 2978 2989 2996 3003 3011 3019 3024 3027 3033 3039 3044 3051 3058 3061 3066 3070 3074 3077 3080 3083 3085 3087 3089 3093 3098 3101 3103 3105 3107 3101 3101 3101 3102 3102 3102 3101 3101